| time (UTC) | temp F | wind direction | speed knots | gust knots | rain 1hr in | rain 24hr in | rain mn in | humidity % | barometer mb |
| 20260508203042 | 67 | 326 | 12.2 | 19.1 | 0.00 | 0.00 | 0.00 | 23 | 1018.7 |
| 20260508202542 | 68 | 312 | 7.8 | 19.1 | 0.00 | 0.00 | 0.00 | 23 | 1018.7 |
| 20260508202042 | 67 | 333 | 6.1 | 20.9 | 0.00 | 0.00 | 0.00 | 23 | 1018.8 |
| 20260508201542 | 67 | 351 | 4.3 | 20.9 | 0.00 | 0.00 | 0.00 | 24 | 1018.7 |
| 20260508201042 | 68 | 314 | 13.9 | 20.0 | 0.00 | 0.00 | 0.00 | 24 | 1018.7 |
| 20260508200542 | 68 | 302 | 11.3 | 20.0 | 0.00 | 0.00 | 0.00 | 24 | 1018.8 |
| 20260508200043 | 67 | 312 | 5.2 | 17.4 | 0.00 | 0.00 | 0.00 | 25 | 1018.8 |
| 20260508195542 | 67 | 321 | 2.6 | 19.1 | 0.00 | 0.00 | 0.00 | 25 | 1018.8 |
| 20260508195042 | 67 | 316 | 5.2 | 19.1 | 0.00 | 0.00 | 0.00 | 27 | 1018.8 |
| 20260508194542 | 66 | 352 | 7.0 | 18.2 | 0.00 | 0.00 | 0.00 | 26 | 1018.8 |
| 20260508194042 | 66 | 344 | 11.3 | 18.2 | 0.00 | 0.00 | 0.00 | 25 | 1018.8 |
| 20260508193542 | 66 | 25 | 8.7 | 17.4 | 0.00 | 0.00 | 0.00 | 27 | 1018.7 |
| 20260508193042 | 66 | 353 | 13.0 | 17.4 | 0.00 | 0.00 | 0.00 | 25 | 1018.7 |
| 20260508192542 | 66 | 322 | 8.7 | 16.5 | 0.00 | 0.00 | 0.00 | 25 | 1018.8 |
| 20260508192042 | 66 | 346 | 7.0 | 14.8 | 0.00 | 0.00 | 0.00 | 26 | 1018.8 |
| 20260508191542 | 67 | 297 | 4.3 | 15.6 | 0.00 | 0.00 | 0.00 | 26 | 1018.8 |
| 20260508190542 | 67 | 107 | 4.3 | 17.4 | 0.00 | 0.00 | 0.00 | 26 | 1018.8 |
| 20260508190042 | 66 | 305 | 7.8 | 19.1 | 0.00 | 0.00 | 0.00 | 27 | 1018.9 |
| 20260508185542 | 66 | 342 | 10.4 | 19.1 | 0.00 | 0.00 | 0.00 | 26 | 1018.9 |
| 20260508185042 | 67 | 352 | 4.3 | 13.9 | 0.00 | 0.00 | 0.00 | 28 | 1019.0 |
| 20260508184542 | 67 | 342 | 5.2 | 13.9 | 0.00 | 0.00 | 0.00 | 28 | 1019.1 |
| 20260508184042 | 67 | 357 | 7.0 | 13.9 | 0.00 | 0.00 | 0.00 | 27 | 1019.2 |
| 20260508183542 | 66 | 334 | 8.7 | 14.8 | 0.00 | 0.00 | 0.00 | 29 | 1019.2 |
| 20260508183042 | 67 | 331 | 7.0 | 14.8 | 0.00 | 0.00 | 0.00 | 28 | 1019.2 |
| 20260508182542 | 67 | 277 | 6.1 | 16.5 | 0.00 | 0.00 | 0.00 | 30 | 1019.2 |
| 20260508182042 | 66 | 315 | 10.4 | 16.5 | 0.00 | 0.00 | 0.00 | 30 | 1019.2 |
| 20260508181542 | 66 | 2 | 6.1 | 16.5 | 0.00 | 0.00 | 0.00 | 31 | 1019.3 |
| 20260508181043 | 66 | 280 | 7.0 | 14.8 | 0.00 | 0.00 | 0.00 | 30 | 1019.3 |
| 20260508180542 | 66 | 302 | 7.8 | 14.8 | 0.00 | 0.00 | 0.00 | 32 | 1019.3 |
| 20260508180042 | 65 | 343 | 3.5 | 13.0 | 0.00 | 0.00 | 0.00 | 29 | 1019.3 |
| 20260508175543 | 65 | 326 | 7.8 | 13.0 | 0.00 | 0.00 | 0.00 | 31 | 1019.4 |
| 20260508175042 | 65 | 319 | 8.7 | 14.8 | 0.00 | 0.00 | 0.00 | 30 | 1019.4 |
| 20260508174542 | 65 | 353 | 6.1 | 14.8 | 0.00 | 0.00 | 0.00 | 30 | 1019.4 |
| 20260508174042 | 65 | 326 | 10.4 | 14.8 | 0.00 | 0.00 | 0.00 | 29 | 1019.4 |
| 20260508173542 | 65 | 318 | 9.6 | 13.9 | 0.00 | 0.00 | 0.00 | 32 | 1019.5 |
| 20260508173042 | 65 | 325 | 11.3 | 13.9 | 0.00 | 0.00 | 0.00 | 29 | 1019.5 |
| 20260508172542 | 65 | 326 | 7.8 | 12.2 | 0.00 | 0.00 | 0.00 | 28 | 1019.5 |
| 20260508172042 | 65 | 297 | 6.1 | 13.0 | 0.00 | 0.00 | 0.00 | 28 | 1019.4 |
| 20260508171542 | 65 | 339 | 5.2 | 13.9 | 0.00 | 0.00 | 0.00 | 27 | 1019.4 |
| 20260508171042 | 66 | 334 | 7.0 | 13.9 | 0.00 | 0.00 | 0.00 | 27 | 1019.4 |
| 20260508170542 | 65 | 291 | 5.2 | 12.2 | 0.00 | 0.00 | 0.00 | 29 | 1019.3 |
| 20260508170042 | 66 | 322 | 8.7 | 12.2 | 0.00 | 0.00 | 0.00 | 27 | 1019.3 |
| 20260508165542 | 65 | 318 | 6.1 | 12.2 | 0.00 | 0.00 | 0.00 | 32 | 1019.3 |
| 20260508165042 | 65 | 309 | 7.8 | 12.2 | 0.00 | 0.00 | 0.00 | 31 | 1019.3 |
| 20260508164542 | 65 | 334 | 5.2 | 10.4 | 0.00 | 0.00 | 0.00 | 31 | 1019.3 |
| 20260508164042 | 65 | 313 | 1.7 | 10.4 | 0.00 | 0.00 | 0.00 | 32 | 1019.3 |
| 20260508163542 | 64 | 310 | 6.1 | 8.7 | 0.00 | 0.00 | 0.00 | 36 | 1019.3 |
| 20260508163042 | 64 | 337 | 5.2 | 8.7 | 0.00 | 0.00 | 0.00 | 33 | 1019.3 |
| 20260508162542 | 64 | 326 | 3.5 | 7.8 | 0.00 | 0.00 | 0.00 | 33 | 1019.2 |
| 20260508162042 | 64 | 318 | 7.0 | 7.8 | 0.00 | 0.00 | 0.00 | 34 | 1019.2 |
| 20260508161542 | 63 | 306 | 5.2 | 8.7 | 0.00 | 0.00 | 0.00 | 32 | 1019.2 |
| 20260508161042 | 63 | 308 | 6.1 | 8.7 | 0.00 | 0.00 | 0.00 | 33 | 1019.2 |
| 20260508155542 | 62 | 336 | 4.3 | 7.8 | 0.00 | 0.00 | 0.00 | 33 | 1019.1 |
| 20260508154545 | 61 | 354 | 2.6 | 7.0 | 0.00 | 0.00 | 0.00 | 33 | 1019.0 |
| 20260508154043 | 61 | 333 | 0.9 | 6.1 | 0.00 | 0.00 | 0.00 | 34 | 1019.0 |
| 20260508153042 | 62 | 356 | 3.5 | 6.1 | 0.00 | 0.00 | 0.00 | 33 | 1019.0 |
| 20260508152044 | 61 | 306 | 3.5 | 5.2 | 0.00 | 0.00 | 0.00 | 34 | 1019.0 |
| 20260508151042 | 60 | 295 | 0.9 | 5.2 | 0.00 | 0.00 | 0.00 | 37 | 1018.9 |
| 20260508150542 | 59 | 307 | 2.6 | 5.2 | 0.00 | 0.00 | 0.00 | 38 | 1018.8 |
| 20260508150043 | 59 | 338 | 1.7 | 4.3 | 0.00 | 0.00 | 0.00 | 40 | 1018.8 |
| 20260508144042 | 57 | 336 | 0.9 | 5.2 | 0.00 | 0.00 | 0.00 | 42 | 1018.8 |
| 20260508143543 | 56 | 305 | 0.9 | 5.2 | 0.00 | 0.00 | 0.00 | 42 | 1018.8 |
| 20260508143042 | 56 | 297 | 1.7 | 4.3 | 0.00 | 0.00 | 0.00 | 43 | 1018.7 |
| 20260508142542 | 55 | 295 | 1.7 | 5.2 | 0.00 | 0.00 | 0.00 | 43 | 1018.7 |
| 20260508142042 | 55 | 298 | 3.5 | 5.2 | 0.00 | 0.00 | 0.00 | 43 | 1018.7 |
| 20260508141542 | 55 | 296 | 3.5 | 5.2 | 0.00 | 0.00 | 0.00 | 44 | 1018.6 |
| 20260508141042 | 55 | 279 | 1.7 | 5.2 | 0.00 | 0.00 | 0.00 | 45 | 1018.6 |
| 20260508140542 | 54 | 302 | 2.6 | 4.3 | 0.00 | 0.00 | 0.00 | 45 | 1018.5 |
| 20260508135042 | 53 | 332 | 2.6 | 4.3 | 0.00 | 0.00 | 0.00 | 46 | 1018.5 |
| 20260508134042 | 53 | 294 | 0.9 | 3.5 | 0.00 | 0.00 | 0.00 | 46 | 1018.4 |
| 20260508132542 | 53 | 332 | 1.7 | 3.5 | 0.00 | 0.00 | 0.00 | 45 | 1018.3 |
| 20260508132042 | 53 | 344 | 1.7 | 3.5 | 0.00 | 0.00 | 0.00 | 45 | 1018.3 |
| 20260508131542 | 53 | 323 | 2.6 | 5.2 | 0.00 | 0.00 | 0.00 | 45 | 1018.2 |
| 20260508130543 | 52 | 327 | 3.5 | 5.2 | 0.00 | 0.00 | 0.00 | 44 | 1018.1 |
| 20260508130042 | 52 | 332 | 3.5 | 4.3 | 0.00 | 0.00 | 0.00 | 46 | 1018.1 |
| 20260508125544 | 52 | 328 | 1.7 | 3.5 | 0.00 | 0.00 | 0.00 | 46 | 1018.1 |
| 20260508125043 | 52 | 13 | 0.0 | 3.5 | 0.00 | 0.00 | 0.00 | 46 | 1018.0 |
| 20260508124542 | 53 | 291 | 0.0 | 6.1 | 0.00 | 0.00 | 0.00 | 45 | 1018.0 |
| 20260508123543 | 52 | 347 | 0.9 | 5.2 | 0.00 | 0.00 | 0.00 | 45 | 1017.9 |
| 20260508123042 | 53 | 323 | 3.5 | 5.2 | 0.00 | 0.00 | 0.00 | 44 | 1017.8 |
| 20260508122042 | 53 | 344 | 1.7 | 4.3 | 0.00 | 0.00 | 0.00 | 43 | 1017.8 |
| 20260508121042 | 53 | 330 | 1.7 | 6.1 | 0.00 | 0.00 | 0.00 | 41 | 1017.7 |
| 20260508120542 | 53 | 324 | 2.6 | 6.1 | 0.00 | 0.00 | 0.00 | 42 | 1017.7 |
| 20260508120042 | 53 | 339 | 3.5 | 6.1 | 0.00 | 0.00 | 0.00 | 42 | 1017.8 |
| 20260508115542 | 53 | 325 | 3.5 | 6.1 | 0.00 | 0.00 | 0.00 | 42 | 1017.8 |
| 20260508115042 | 53 | 323 | 3.5 | 5.2 | 0.00 | 0.00 | 0.00 | 42 | 1017.8 |
| 20260508114542 | 53 | 309 | 2.6 | 6.1 | 0.00 | 0.00 | 0.00 | 42 | 1017.7 |
| 20260508114042 | 54 | 314 | 2.6 | 6.1 | 0.00 | 0.00 | 0.00 | 41 | 1017.7 |
| 20260508113542 | 54 | 303 | 3.5 | 6.1 | 0.00 | 0.00 | 0.00 | 41 | 1017.7 |
| 20260508113042 | 54 | 328 | 3.5 | 5.2 | 0.00 | 0.00 | 0.00 | 41 | 1017.6 |
| 20260508112542 | 54 | 319 | 2.6 | 5.2 | 0.00 | 0.00 | 0.00 | 41 | 1017.6 |
| 20260508112042 | 54 | 311 | 2.6 | 4.3 | 0.00 | 0.00 | 0.00 | 40 | 1017.6 |
| 20260508111542 | 54 | 311 | 2.6 | 4.3 | 0.00 | 0.00 | 0.00 | 39 | 1017.5 |
| 20260508111042 | 54 | 314 | 3.5 | 4.3 | 0.00 | 0.00 | 0.00 | 39 | 1017.6 |
| 20260508110542 | 54 | 309 | 2.6 | 4.3 | 0.00 | 0.00 | 0.00 | 39 | 1017.6 |
| 20260508110042 | 54 | 312 | 2.6 | 4.3 | 0.00 | 0.00 | 0.00 | 39 | 1017.5 |
| 20260508105542 | 54 | 307 | 3.5 | 4.3 | 0.00 | 0.00 | 0.00 | 39 | 1017.5 |
| 20260508105042 | 54 | 316 | 2.6 | 4.3 | 0.00 | 0.00 | 0.00 | 39 | 1017.5 |
| 20260508104542 | 54 | 318 | 0.9 | 4.3 | 0.00 | 0.00 | 0.00 | 39 | 1017.5 |
| 20260508104042 | 55 | 310 | 2.6 | 4.3 | 0.00 | 0.00 | 0.00 | 38 | 1017.5 |
| 20260508103542 | 55 | 309 | 2.6 | 4.3 | 0.00 | 0.00 | 0.00 | 38 | 1017.5 |
| 20260508103042 | 55 | 335 | 3.5 | 6.1 | 0.00 | 0.00 | 0.00 | 38 | 1017.5 |
| 20260508102542 | 55 | 327 | 1.7 | 6.1 | 0.00 | 0.00 | 0.00 | 37 | 1017.5 |
| 20260508102042 | 55 | 327 | 2.6 | 6.1 | 0.00 | 0.00 | 0.00 | 37 | 1017.5 |
| 20260508101542 | 55 | 327 | 2.6 | 6.1 | 0.00 | 0.00 | 0.00 | 38 | 1017.4 |
| 20260508101042 | 55 | 326 | 4.3 | 6.1 | 0.00 | 0.00 | 0.00 | 38 | 1017.4 |
| 20260508100542 | 55 | 327 | 3.5 | 7.0 | 0.00 | 0.00 | 0.00 | 37 | 1017.4 |
| 20260508100042 | 55 | 327 | 3.5 | 7.0 | 0.00 | 0.00 | 0.00 | 38 | 1017.4 |
| 20260508095542 | 55 | 328 | 4.3 | 5.2 | 0.00 | 0.00 | 0.00 | 38 | 1017.4 |
| 20260508095042 | 54 | 331 | 2.6 | 5.2 | 0.00 | 0.00 | 0.00 | 38 | 1017.4 |
| 20260508094542 | 53 | 322 | 2.6 | 5.2 | 0.00 | 0.00 | 0.00 | 39 | 1017.4 |
| 20260508094042 | 53 | 301 | 1.7 | 4.3 | 0.00 | 0.00 | 0.00 | 40 | 1017.4 |
| 20260508093542 | 54 | 299 | 0.9 | 4.3 | 0.00 | 0.00 | 0.00 | 40 | 1017.3 |
| 20260508093042 | 54 | 307 | 0.9 | 4.3 | 0.00 | 0.00 | 0.00 | 39 | 1017.3 |
| 20260508092542 | 54 | 315 | 2.6 | 5.2 | 0.00 | 0.00 | 0.00 | 39 | 1017.3 |
| 20260508092042 | 54 | 320 | 2.6 | 5.2 | 0.00 | 0.00 | 0.00 | 40 | 1017.3 |
| 20260508091542 | 53 | 304 | 2.6 | 4.3 | 0.00 | 0.00 | 0.00 | 40 | 1017.3 |
| 20260508091042 | 54 | 305 | 1.7 | 3.5 | 0.00 | 0.00 | 0.00 | 40 | 1017.3 |
| 20260508090542 | 54 | 312 | 0.9 | 3.5 | 0.00 | 0.00 | 0.00 | 39 | 1017.3 |
| 20260508090042 | 55 | 309 | 1.7 | 5.2 | 0.00 | 0.00 | 0.00 | 38 | 1017.3 |
| 20260508085542 | 56 | 268 | 0.9 | 6.1 | 0.00 | 0.00 | 0.00 | 37 | 1017.3 |
| 20260508085042 | 57 | 297 | 4.3 | 6.1 | 0.00 | 0.00 | 0.00 | 36 | 1017.4 |
| 20260508084542 | 57 | 315 | 3.5 | 6.1 | 0.00 | 0.00 | 0.00 | 34 | 1017.3 |
| 20260508084042 | 57 | 306 | 4.3 | 5.2 | 0.00 | 0.00 | 0.00 | 34 | 1017.3 |
| 20260508083542 | 57 | 308 | 3.5 | 5.2 | 0.00 | 0.00 | 0.00 | 34 | 1017.4 |
| 20260508083042 | 57 | 310 | 3.5 | 7.0 | 0.00 | 0.00 | 0.00 | 34 | 1017.4 |
| 20260508082543 | 57 | 327 | 2.6 | 7.0 | 0.00 | 0.00 | 0.00 | 34 | 1017.4 |
| 20260508082042 | 57 | 330 | 4.3 | 6.1 | 0.00 | 0.00 | 0.00 | 35 | 1017.4 |
| 20260508081542 | 56 | 314 | 3.5 | 5.2 | 0.00 | 0.00 | 0.00 | 35 | 1017.4 |
| 20260508081042 | 56 | 312 | 3.5 | 4.3 | 0.00 | 0.00 | 0.00 | 36 | 1017.4 |
| 20260508080542 | 56 | 314 | 2.6 | 4.3 | 0.00 | 0.00 | 0.00 | 36 | 1017.4 |
| 20260508080042 | 56 | 318 | 1.7 | 3.5 | 0.00 | 0.00 | 0.00 | 35 | 1017.4 |
| 20260508075542 | 56 | 313 | 2.6 | 3.5 | 0.00 | 0.00 | 0.00 | 36 | 1017.4 |
| 20260508075042 | 56 | 317 | 2.6 | 3.5 | 0.00 | 0.00 | 0.00 | 35 | 1017.4 |
| 20260508074542 | 56 | 320 | 1.7 | 3.5 | 0.00 | 0.00 | 0.00 | 36 | 1017.4 |
| 20260508074042 | 56 | 326 | 1.7 | 3.5 | 0.00 | 0.00 | 0.00 | 36 | 1017.4 |
| 20260508073542 | 55 | 320 | 2.6 | 3.5 | 0.00 | 0.00 | 0.00 | 37 | 1017.4 |
| 20260508073042 | 55 | 313 | 2.6 | 3.5 | 0.00 | 0.00 | 0.00 | 38 | 1017.4 |
| 20260508072542 | 54 | 323 | 1.7 | 3.5 | 0.00 | 0.00 | 0.00 | 39 | 1017.4 |
| 20260508072042 | 54 | 311 | 1.7 | 2.6 | 0.00 | 0.00 | 0.00 | 39 | 1017.5 |
| 20260508071542 | 54 | 322 | 1.7 | 2.6 | 0.00 | 0.00 | 0.00 | 39 | 1017.5 |
| 20260508071042 | 54 | 312 | 1.7 | 3.5 | 0.00 | 0.00 | 0.00 | 38 | 1017.6 |
| 20260508070542 | 54 | 330 | 1.7 | 3.5 | 0.00 | 0.00 | 0.00 | 38 | 1017.6 |
| 20260508070042 | 54 | 336 | 0.9 | 3.5 | 0.00 | 0.00 | 0.00 | 38 | 1017.5 |
| 20260508065542 | 54 | 355 | 1.7 | 2.6 | 0.00 | 0.00 | 0.00 | 39 | 1017.5 |
| 20260508065042 | 55 | 24 | 1.7 | 2.6 | 0.00 | 0.00 | 0.00 | 38 | 1017.5 |
| 20260508064542 | 55 | 6 | 0.9 | 2.6 | 0.00 | 0.00 | 0.00 | 38 | 1017.6 |
| 20260508064042 | 55 | 22 | 0.9 | 1.7 | 0.00 | 0.00 | 0.00 | 38 | 1017.6 |
| 20260508063542 | 55 | 29 | 0.0 | 1.7 | 0.00 | 0.00 | 0.00 | 37 | 1017.5 |
| 20260508063042 | 55 | 5 | 1.7 | 2.6 | 0.00 | 0.00 | 0.00 | 37 | 1017.5 |
| 20260508062542 | 56 | 17 | 1.7 | 2.6 | 0.00 | 0.00 | 0.00 | 37 | 1017.4 |
| 20260508062042 | 56 | 15 | 1.7 | 2.6 | 0.00 | 0.00 | 0.00 | 36 | 1017.4 |
| 20260508061542 | 56 | 5 | 0.9 | 2.6 | 0.00 | 0.00 | 0.00 | 36 | 1017.3 |
| 20260508061042 | 57 | 340 | 1.7 | 3.5 | 0.00 | 0.00 | 0.00 | 35 | 1017.3 |
| 20260508060542 | 58 | 330 | 2.6 | 4.3 | 0.00 | 0.00 | 0.00 | 34 | 1017.3 |
| 20260508060042 | 58 | 331 | 2.6 | 4.3 | 0.00 | 0.00 | 0.00 | 34 | 1017.2 |
| 20260508055542 | 58 | 328 | 3.5 | 3.5 | 0.00 | 0.00 | 0.00 | 34 | 1017.2 |
| 20260508055042 | 57 | 330 | 2.6 | 3.5 | 0.00 | 0.00 | 0.00 | 34 | 1017.2 |
| 20260508054542 | 58 | 313 | 2.6 | 2.6 | 0.00 | 0.00 | 0.00 | 33 | 1017.2 |
| 20260508054042 | 58 | 311 | 1.7 | 2.6 | 0.00 | 0.00 | 0.00 | 33 | 1017.2 |
| 20260508053542 | 59 | 299 | 0.9 | 3.5 | 0.00 | 0.00 | 0.00 | 32 | 1017.1 |
| 20260508053042 | 58 | 306 | 2.6 | 3.5 | 0.00 | 0.00 | 0.00 | 32 | 1017.1 |
| 20260508052542 | 58 | 319 | 1.7 | 3.5 | 0.00 | 0.00 | 0.00 | 32 | 1017.1 |
| 20260508052042 | 57 | 310 | 1.7 | 3.5 | 0.00 | 0.00 | 0.00 | 34 | 1017.1 |
| 20260508051542 | 57 | 324 | 2.6 | 3.5 | 0.00 | 0.00 | 0.00 | 34 | 1017.1 |
| 20260508051042 | 57 | 324 | 1.7 | 2.6 | 0.00 | 0.00 | 0.00 | 34 | 1017.2 |
| 20260508050542 | 56 | 324 | 1.7 | 2.6 | 0.00 | 0.00 | 0.00 | 35 | 1017.2 |
| 20260508050042 | 56 | 330 | 1.7 | 2.6 | 0.00 | 0.00 | 0.00 | 35 | 1017.2 |
| 20260508045542 | 56 | 338 | 0.9 | 2.6 | 0.00 | 0.00 | 0.00 | 35 | 1017.2 |
| 20260508045042 | 56 | 324 | 1.7 | 2.6 | 0.00 | 0.00 | 0.00 | 36 | 1017.2 |
| 20260508044542 | 56 | 316 | 1.7 | 2.6 | 0.00 | 0.00 | 0.00 | 35 | 1017.2 |
| 20260508044042 | 57 | 311 | 1.7 | 2.6 | 0.00 | 0.00 | 0.00 | 35 | 1017.2 |
| 20260508043542 | 57 | 316 | 2.6 | 2.6 | 0.00 | 0.00 | 0.00 | 34 | 1017.2 |
| 20260508043042 | 57 | 310 | 0.9 | 1.7 | 0.00 | 0.00 | 0.00 | 34 | 1017.3 |
| 20260508042542 | 57 | 302 | 0.9 | 2.6 | 0.00 | 0.00 | 0.00 | 34 | 1017.3 |
| 20260508042042 | 57 | 311 | 1.7 | 2.6 | 0.00 | 0.00 | 0.00 | 34 | 1017.3 |
| 20260508041542 | 57 | 309 | 1.7 | 2.6 | 0.00 | 0.00 | 0.00 | 34 | 1017.3 |
| 20260508041042 | 57 | 309 | 0.9 | 2.6 | 0.00 | 0.00 | 0.00 | 34 | 1017.3 |
| 20260508040542 | 57 | 309 | 1.7 | 2.6 | 0.00 | 0.00 | 0.00 | 34 | 1017.2 |
| 20260508040042 | 57 | 319 | 0.0 | 1.7 | 0.00 | 0.00 | 0.00 | 34 | 1017.2 |
| 20260508035542 | 58 | 318 | 0.0 | 1.7 | 0.00 | 0.00 | 0.00 | 33 | 1017.2 |
| 20260508035042 | 58 | 313 | 0.0 | 2.6 | 0.00 | 0.00 | 0.00 | 33 | 1017.1 |
| 20260508034542 | 58 | 335 | 1.7 | 2.6 | 0.00 | 0.00 | 0.00 | 33 | 1017.1 |
| 20260508034042 | 58 | 323 | 0.9 | 2.6 | 0.00 | 0.00 | 0.00 | 33 | 1017.1 |
| 20260508033543 | 58 | 316 | 1.7 | 2.6 | 0.00 | 0.00 | 0.00 | 32 | 1017.0 |
| 20260508033042 | 58 | 354 | 1.7 | 1.7 | 0.00 | 0.00 | 0.00 | 33 | 1017.0 |
| 20260508032542 | 58 | 23 | 0.9 | 1.7 | 0.00 | 0.00 | 0.00 | 33 | 1017.0 |
| 20260508032042 | 58 | 20 | 0.0 | 1.7 | 0.00 | 0.00 | 0.00 | 32 | 1017.0 |
| 20260508031542 | 59 | 31 | 0.0 | 2.6 | 0.00 | 0.00 | 0.00 | 32 | 1017.0 |
| 20260508031042 | 60 | 13 | 0.9 | 3.5 | 0.00 | 0.00 | 0.00 | 31 | 1016.9 |
| 20260508030542 | 60 | 325 | 0.0 | 3.5 | 0.00 | 0.00 | 0.00 | 31 | 1016.8 |
| 20260508030042 | 60 | 10 | 0.9 | 4.3 | 0.00 | 0.00 | 0.00 | 30 | 1016.8 |
| 20260508025542 | 61 | 319 | 3.5 | 4.3 | 0.00 | 0.00 | 0.00 | 30 | 1016.8 |
| 20260508025042 | 61 | 321 | 2.6 | 5.2 | 0.00 | 0.00 | 0.00 | 29 | 1016.8 |
| 20260508024542 | 61 | 329 | 3.5 | 5.2 | 0.00 | 0.00 | 0.00 | 30 | 1016.8 |
| 20260508024042 | 60 | 335 | 3.5 | 4.3 | 0.00 | 0.00 | 0.00 | 30 | 1016.8 |
| 20260508023542 | 61 | 313 | 2.6 | 3.5 | 0.00 | 0.00 | 0.00 | 32 | 1016.8 |
| 20260508023042 | 61 | 312 | 2.6 | 2.6 | 0.00 | 0.00 | 0.00 | 30 | 1016.7 |
| 20260508022542 | 61 | 311 | 0.9 | 2.6 | 0.00 | 0.00 | 0.00 | 30 | 1016.7 |
| 20260508022042 | 62 | 307 | 0.9 | 2.6 | 0.00 | 0.00 | 0.00 | 29 | 1016.7 |
| 20260508021542 | 62 | 297 | 0.0 | 4.3 | 0.00 | 0.00 | 0.00 | 29 | 1016.6 |
| 20260508021042 | 63 | 321 | 2.6 | 4.3 | 0.00 | 0.00 | 0.00 | 28 | 1016.6 |
| 20260508020542 | 63 | 323 | 2.6 | 4.3 | 0.00 | 0.00 | 0.00 | 27 | 1016.6 |
| 20260508020042 | 63 | 328 | 1.7 | 5.2 | 0.00 | 0.00 | 0.00 | 27 | 1016.6 |
| 20260508015542 | 63 | 326 | 3.5 | 6.1 | 0.00 | 0.00 | 0.00 | 27 | 1016.6 |
| 20260508015042 | 63 | 312 | 3.5 | 6.1 | 0.00 | 0.00 | 0.00 | 27 | 1016.6 |
| 20260508014542 | 64 | 319 | 0.9 | 4.3 | 0.00 | 0.00 | 0.00 | 27 | 1016.6 |
| 20260508014042 | 64 | 341 | 3.5 | 5.2 | 0.00 | 0.00 | 0.00 | 27 | 1016.6 |
| 20260508013542 | 64 | 295 | 2.6 | 5.2 | 0.00 | 0.00 | 0.00 | 27 | 1016.6 |
| 20260508013042 | 64 | 356 | 0.0 | 3.5 | 0.00 | 0.00 | 0.00 | 26 | 1016.6 |
| 20260508012542 | 64 | 7 | 1.7 | 3.5 | 0.00 | 0.00 | 0.00 | 27 | 1016.6 |
| 20260508012042 | 64 | 38 | 2.6 | 3.5 | 0.00 | 0.00 | 0.00 | 27 | 1016.7 |
| 20260508011542 | 64 | 28 | 0.0 | 3.5 | 0.00 | 0.00 | 0.00 | 27 | 1016.7 |
| 20260508011042 | 64 | 26 | 2.6 | 3.5 | 0.00 | 0.00 | 0.00 | 27 | 1016.7 |
| 20260508010542 | 64 | 331 | 0.0 | 4.3 | 0.00 | 0.00 | 0.00 | 27 | 1016.8 |
| 20260508010042 | 64 | 42 | 2.6 | 4.3 | 0.00 | 0.00 | 0.00 | 27 | 1016.8 |
| 20260508005542 | 64 | 351 | 0.9 | 3.5 | 0.00 | 0.00 | 0.00 | 28 | 1016.9 |
| 20260508005042 | 64 | 332 | 0.9 | 2.6 | 0.00 | 0.00 | 0.00 | 28 | 1016.9 |
| 20260508004542 | 64 | 11 | 0.0 | 2.6 | 0.00 | 0.00 | 0.00 | 28 | 1016.9 |
| 20260508004042 | 64 | 339 | 0.9 | 4.3 | 0.00 | 0.00 | 0.00 | 28 | 1016.9 |
| 20260508003542 | 64 | 353 | 2.6 | 4.3 | 0.00 | 0.00 | 0.00 | 28 | 1016.9 |
| 20260508003042 | 64 | 346 | 0.9 | 3.5 | 0.00 | 0.00 | 0.00 | 27 | 1016.9 |
| 20260508002542 | 64 | 342 | 1.7 | 4.3 | 0.00 | 0.00 | 0.00 | 28 | 1016.9 |
| 20260508002042 | 64 | 41 | 2.6 | 5.2 | 0.00 | 0.00 | 0.00 | 27 | 1017.0 |
| 20260508001042 | 65 | 20 | 3.5 | 9.6 | 0.00 | 0.00 | 0.00 | 26 | 1017.1 |
| 20260508000542 | 66 | 337 | 2.6 | 9.6 | 0.00 | 0.00 | 0.00 | 28 | 1017.1 |
| 20260508000042 | 66 | 289 | 5.2 | 7.8 | 0.00 | 0.00 | 0.00 | 27 | 1017.1 |
| 20260507235542 | 66 | 319 | 3.5 | 8.7 | 0.00 | 0.00 | 0.00 | 27 | 1017.1 |
| 20260507235042 | 67 | 318 | 7.0 | 8.7 | 0.00 | 0.00 | 0.00 | 27 | 1017.1 |
| 20260507234543 | 68 | 329 | 2.6 | 7.0 | 0.00 | 0.00 | 0.00 | 26 | 1017.1 |
| 20260507234042 | 67 | 31 | 4.3 | 9.6 | 0.00 | 0.00 | 0.00 | 27 | 1017.1 |
| 20260507233542 | 67 | 22 | 2.6 | 10.4 | 0.00 | 0.00 | 0.00 | 26 | 1017.2 |
| 20260507232542 | 68 | 311 | 8.7 | 11.3 | 0.00 | 0.00 | 0.00 | 25 | 1017.3 |
| 20260507232042 | 68 | 315 | 6.1 | 11.3 | 0.00 | 0.00 | 0.00 | 26 | 1017.3 |
| 20260507231542 | 67 | 298 | 4.3 | 10.4 | 0.00 | 0.00 | 0.00 | 26 | 1017.3 |
| 20260507231043 | 67 | 339 | 6.1 | 13.0 | 0.00 | 0.00 | 0.00 | 26 | 1017.3 |
| 20260507230543 | 67 | 344 | 3.5 | 13.0 | 0.00 | 0.00 | 0.00 | 26 | 1017.3 |
| 20260507230042 | 68 | 1 | 7.8 | 12.2 | 0.00 | 0.00 | 0.00 | 26 | 1017.3 |
| 20260507225542 | 67 | 340 | 7.0 | 10.4 | 0.00 | 0.00 | 0.00 | 25 | 1017.4 |
| 20260507225042 | 67 | 343 | 3.5 | 11.3 | 0.00 | 0.00 | 0.00 | 26 | 1017.5 |
| 20260507224542 | 68 | 342 | 6.1 | 11.3 | 0.00 | 0.00 | 0.00 | 25 | 1017.5 |
| 20260507224042 | 68 | 18 | 3.5 | 9.6 | 0.00 | 0.00 | 0.00 | 26 | 1017.5 |
| 20260507223542 | 68 | 304 | 5.2 | 10.4 | 0.00 | 0.00 | 0.00 | 26 | 1017.7 |
| 20260507223042 | 68 | 334 | 6.1 | 10.4 | 0.00 | 0.00 | 0.00 | 25 | 1017.7 |
| 20260507222542 | 68 | 338 | 6.1 | 10.4 | 0.00 | 0.00 | 0.00 | 26 | 1017.7 |
| 20260507222042 | 67 | 346 | 4.3 | 11.3 | 0.00 | 0.00 | 0.00 | 25 | 1017.8 |
| 20260507221542 | 68 | 344 | 7.8 | 11.3 | 0.00 | 0.00 | 0.00 | 24 | 1017.8 |
| 20260507221042 | 67 | 358 | 5.2 | 10.4 | 0.00 | 0.00 | 0.00 | 27 | 1017.8 |
| 20260507220542 | 67 | 338 | 4.3 | 9.6 | 0.00 | 0.00 | 0.00 | 24 | 1017.8 |
| 20260507220042 | 69 | 333 | 3.5 | 10.4 | 0.00 | 0.00 | 0.00 | 26 | 1017.9 |
| 20260507215542 | 69 | 349 | 5.2 | 10.4 | 0.00 | 0.00 | 0.00 | 24 | 1018.0 |
| 20260507215042 | 70 | 324 | 5.2 | 10.4 | 0.00 | 0.00 | 0.00 | 24 | 1018.0 |
| 20260507214542 | 70 | 316 | 7.8 | 10.4 | 0.00 | 0.00 | 0.00 | 26 | 1018.0 |
| 20260507214042 | 69 | 291 | 1.7 | 5.2 | 0.00 | 0.00 | 0.00 | 25 | 1018.1 |
| 20260507213542 | 68 | 315 | 2.6 | 9.6 | 0.00 | 0.00 | 0.00 | 25 | 1018.2 |
| 20260507213042 | 69 | 332 | 3.5 | 12.2 | 0.00 | 0.00 | 0.00 | 23 | 1018.3 |
| 20260507212542 | 69 | 322 | 7.0 | 12.2 | 0.00 | 0.00 | 0.00 | 23 | 1018.3 |
| 20260507212042 | 70 | 261 | 0.0 | 7.8 | 0.00 | 0.00 | 0.00 | 22 | 1018.3 |
| 20260507211542 | 70 | 230 | 3.5 | 7.8 | 0.00 | 0.00 | 0.00 | 26 | 1018.4 |
| 20260507211042 | 70 | 274 | 0.9 | 9.6 | 0.00 | 0.00 | 0.00 | 23 | 1018.5 |
| 20260507210542 | 69 | 257 | 7.8 | 9.6 | 0.00 | 0.00 | 0.00 | 26 | 1018.5 |
| 20260507210042 | 69 | 249 | 1.7 | 7.0 | 0.00 | 0.00 | 0.00 | 26 | 1018.6 |
| 20260507205542 | 69 | 210 | 0.9 | 7.0 | 0.00 | 0.00 | 0.00 | 24 | 1018.6 |
| 20260507205042 | 68 | 175 | 2.6 | 7.8 | 0.00 | 0.00 | 0.00 | 27 | 1018.6 |
| 20260507204542 | 68 | 36 | 3.5 | 7.8 | 0.00 | 0.00 | 0.00 | 22 | 1018.7 |
| 20260507204042 | 69 | 350 | 1.7 | 6.1 | 0.00 | 0.00 | 0.00 | 23 | 1018.7 |
| 20260507203542 | 68 | 36 | 1.7 | 6.1 | 0.00 | 0.00 | 0.00 | 23 | 1018.7 |